Regional Weather Roundup
Issued by NWS Newport/Morehead, NC

Current Version | Previous Version | Text Only | Print | Product List | Glossary On
Versions: 1 2 3 4 5 6 7 8 9 10 11 12 13 14 15 16 17 18 19 20 21 22 23 24 25 26 27 28 29 30 31 32 33 34 35 36 37 38 39 40 41 42 43 44 45 46 47 48 49 50
000
ASUS42 KMHX 030912
RWRMHX
WEATHER ROUNDUP FOR EASTERN NORTH CAROLINA
NATIONAL WEATHER SERVICE NEWPORT/MOREHEAD CITY NC
500 AM EDT SUN MAY 03 2015

NOTE: "FAIR" INDICATES FEW OR NO CLOUDS BELOW 12,000 FEET
WITH NO SIGNIFICANT WEATHER AND/OR OBSTRUCTIONS TO VISIBILITY

NCZ015>017-031-032-045>047-102-103-031000-
NORTH COAST

CITY           SKY/WX    TMP DP  RH WIND       PRES   REMARKS
EDENTON        CLEAR     56  51  85 W3        30.10S
ELIZABETH CITY CLEAR     50  48  93 SW5       30.10R
KITTY HAWK     SUNNY     54  50  86 SW5       30.09R
MANTEO         CLEAR     54  49  83 W5        30.10S

$$

NCZ045>047-081-094-103-104-031000-
CENTRAL COAST

CITY           SKY/WX    TMP DP  RH WIND       PRES   REMARKS
FRISCO         CLEAR     51  51 100 W3        30.10R
SWANQUARTER      N/A     57 N/A N/A W3        30.06S

$$

NCZ095-097-098-100-101-031000-
SOUTHERN COAST

CITY           SKY/WX    TMP DP  RH WIND       PRES   REMARKS
BEAUFORT       CLEAR     50  48  93 CALM      30.11S
CEDAR ISLAND     N/A     55 N/A N/A SW3       30.15S
JACKSONVILLE   PTCLDY    48  47  96 CALM      30.12R
PINEY ISLAND   SUNNY    N/A N/A N/A SW6       30.11R
WILMINGTON     CLEAR     51  49  92 CALM      30.12R FOG


$$

NCZ011>013-027>030-043-044-078>080-089-090>093-098-031000-
COASTAL PLAIN

CITY           SKY/WX    TMP DP  RH WIND       PRES   REMARKS
AHOSKIE        CLEAR     46  45  97 CALM      30.11R FOG
CLINTON        CLEAR     49  49 100 CALM      30.12S
ELIZABETHTOWN  CLEAR     53  52  97 CALM      30.11S
GOLDSBORO      CLEAR     50 N/A N/A CALM      30.10R HAZE
GREENVILLE     CLEAR     52  52 100 CALM      30.13R
HAVELOCK       CLEAR     48  45  89 CALM      30.13R
KENANSVILLE    CLEAR     45  45  99 CALM      30.13R
KINSTON          N/A     48  48  99 CALM      30.12S FOG
NEW BERN       CLEAR     48  46  93 CALM      30.13R FOG
RICHLANDS      CLOUDY    45  43  93 CALM      30.13R
ROCKY MOUNT    CLEAR     48  47  96 CALM      30.11R FOG
WASHINGTON     CLEAR     50  49  97 SW3       30.11
WHITEVILLE     MOCLDY    52  51  95 CALM      30.12R

$$

AMZ130-135-150-152-154-156-158-170-250-252-270-ANZ085-086-088-633-658-670-031000-
MARINE OBSERVATIONS

STATION/POSITION TIME  TEMP    WIND        PRES    WAVE   SWELL
                       AIR SEA DIR/SP/G            HT/PER HT/PER
                 (UTC) (F)     (DEG/KT/KT) (MB)    (FT/S) (FT/S)
CHESAPEAKE LIGHT 0900   55     240/ 13/ 13 1019.2
64 E VA BEACH    0850   52 53  280/  4/  6 1018.7    7/11   7/11
DUCK             0800   56 53  240/  8/ 10 1017.7
2 E DUCK         0811      54                N/A     6/11   3/11
OREGON INLET     0800   55 57  250/  4/  6 1018.8
13E OREGON INLT  0900      50                N/A     6/11   3/11
HATTERAS CG      0800   59 61  270/  6/  7 1018.6
DIAMOND BUOY     0850   56     300/  4/  6 1019.2    5/11   5/11
CAPE LOOKOUT     0900   60     240/  4/  5 1019.4
BEAUFORT LAB     0800   58 62  230/  2/  2 1018.6
27 SE WRIGHTSVLE 0800   64 71  330/  4/  6   N/A
5 SE WRIGHTSVLE  0808   64 66  290/  6/  8 1019.6
225 S CAPE HAT   0850   65 69  360/ 16/ 21 1018.8    9/11   7/11
41 SE CHARLESTON 0850   70 72  250/  6/  8 1019.2    3/11   3/11

$$


USA.gov is the U.S. government's official web portal to all federal, state and local government web resources and services.